STARLINK-32541, 61916

Orbit data source: Space-Track

STARLINK-32541, 61916 is a payload satellite owned by SpaceX/Seattle (US) in LEO that was launched on Mon, 11 Nov 2024 UTC via an FALCON 9 launch vehicle from the Air Force Eastern Test Range (AFETR). Payload-class satellites include a variety of spacecraft equipped with specific instruments for various scientific and technological missions. These include communications satellites like Starlink; space stations such as the ISS; scientific satellites like the Hubble; Earth observation satellites from companies like Planet Labs, Umbra, and HawkEye 360; GPS; miniature CubeSats for education and research; and military/defense satellites.

Loading next visibility...
Identifier
61916, 2024-207E
Orbit
LEO
Last TLE update
8 hours ago
Origin
Manufacturer
SpaceX/Seattle
Mission
Operational Commercial Communications
Bus & Motor
STARLINK V2M, Unknown motor
Mass
730 kg wet, ~700 kg dry
Launch date (UTC)
2024-11-11 (8 months ago)
Launch vehicle
FALCON 9
Launch site
Air Force Eastern Test Range (AFETR)
Object type
Payload
Rocket body
Debris
Shape & HBR
Box + 2 Pan, 29 m
Radar Cross Section
36.964 m², Large (>1 m²)

Expand to show TLE details & history

TLE from 8 hours ago
0 STARLINK-32541
1 61916U 24207E   25186.49409206  .00015145  00000-0  55860-3 0  9997
2 61916  42.9998 241.4972 0001279 273.6818  86.3888 15.27589650 36872
Epoch: 2025-07-05T11:51Z
TLE epoch observation values (Epoch: 2025-07-05T11:51:29.553Z)
Latitude
Longitude
139.89273°
Altitude
482.74 km
Speed
7.626 km/s
True Right ascension
16h 05m 59s
True Declination
0° 00' 00"
Sunlit
Object was in full shadow at epoch
Visualization orbit readout
Latitude
38.4324°
Longitude
-164.21614°
Altitude
485.884 km
Speed
7.627 km/s
Apparent Right ascension
19h 52m 12s
Apparent Declination
0° 58' 17"
Sunlit
Object is in full shadow
Visualization observer readout
Local Sidereal Time
07:55:06
Azimuth
1.112° NNE
Elevation
-49.107°
Doppler factor
1
Orbital elements
Apogee altitude
485.843 km
Perigee altitude
484.088 km
Semi-major axis
6,863.102 km
Eccentricity
0.00013
Inclination
42.9998°
RAAN
241.4972°
Arg. of periapsis
273.6818°
True anomaly
Unknown
Mean anomaly
86.3888°
Eccentric anomaly
Unknown
Mean motion
3.81735 °/min
Orbital period
94.31 mins
BSTAR
0.0005586
Loading maneuver chart data...
Loading SW <> Apogee altitude chart data...
Loading historical data...
Loading historical data...
Loading historical data...
Loading historical data...
Loading historical data...
Loading historical data...
Loading historical data...

STARLINK-32541 Visibility forecast

Observer location: undefined°, undefined°

Span
Click to sort rows by Start time (UTC) header in descending order
Start Az.
Max El. time (UTC)
Max El. Az.
Max El.
End time (UTC)
End Az.
6 mins2025-07-06 06:53:19.641Z216.855° SW2025-07-06 06:56:19.641Z158.85° S30.719°2025-07-06 06:59:19.641Z87.086° E
5 mins2025-07-06 08:33:19.641Z268.945° W2025-07-06 08:35:19.641Z341.56° N42.783°2025-07-06 08:38:19.641Z68.954° E
5 mins2025-07-06 10:12:19.641Z294.213° NW2025-07-06 10:14:19.641Z347.868° N38.302°2025-07-06 10:17:19.641Z79.295° E
6 mins2025-07-06 11:51:19.641Z282.268° WNW2025-07-06 11:53:19.641Z239.609° WSW42.284°2025-07-06 11:57:19.641Z119.026° SE
|